GW6037 Weather Reports


time (UTC)temp
C
wind
direction
speed
KPH
gust
KPH
rain 1hr
cm
rain 24hr
cm
rain mn
cm
humidity
%
barometer
mb
20260503071549 21 108 1.6 4.8 0.00 2.21 0.00 92 1017.9
20260503070104 21 161 1.6 4.8 0.00 2.21 0.00 93 1018.1
20260503054549 22 111 0.0 3.2 0.00 2.21 0.00 93 1018.7
20260503053051 22 0 0.0 3.2 0.00 2.21 0.00 94 1018.7
20260503051551 22 113 3.2 6.4 0.00 2.21 0.00 94 1018.7
20260503050055 23 105 1.6 4.8 0.00 2.21 0.00 94 1018.9
20260503044553 23 115 1.6 4.8 0.00 2.21 0.00 94 1018.9
20260503043051 23 94 1.6 3.2 0.00 2.21 0.00 94 1019.1
20260503041604 23 0 0.0 0.0 0.00 2.21 0.00 95 1019.1
20260503040058 23 0 0.0 0.0 0.00 2.21 0.00 94 1019.2
20260503034605 23 0 0.0 0.0 0.00 2.21 2.21 95 1019.4
20260503033057 23 0 0.0 0.0 0.00 2.21 2.21 94 1019.4
20260503031555 23 0 0.0 0.0 0.00 2.21 2.21 94 1019.3
20260503030056 23 0 0.0 4.8 0.00 2.21 2.21 95 1019.2
20260503024555 23 150 3.2 6.4 0.00 2.21 2.21 94 1019.2
20260503023051 23 113 1.6 4.8 0.00 2.21 2.21 94 1019.1
20260503021552 23 0 0.0 0.0 0.00 2.21 2.21 94 1018.9
20260503020048 23 0 0.0 0.0 0.00 2.21 2.21 94 1018.9
20260503014552 23 0 0.0 3.2 0.00 2.21 2.21 94 1018.8
20260503013048 24 114 1.6 4.8 0.00 2.21 2.21 94 1018.6
20260503011552 24 0 0.0 3.2 0.00 2.21 2.21 95 1018.5
20260503010050 24 0 0.0 3.2 0.00 2.21 2.21 94 1018.2
20260503004549 24 0 0.0 3.2 0.00 2.21 2.21 94 1017.9
20260503003048 24 0 0.0 3.2 0.00 2.21 2.21 94 1017.8
20260503001551 24 0 0.0 3.2 0.00 2.21 2.21 94 1017.6
20260503000054 24 191 0.0 3.2 0.03 2.21 2.21 94 1017.6
20260502234551 24 188 0.0 3.2 0.05 2.21 2.21 94 1017.4
20260502233054 24 194 0.0 3.2 0.15 2.21 2.21 94 1017.3
20260502231602 24 190 1.6 4.8 1.27 2.21 2.21 94 1017.1
20260502230050 24 238 1.6 4.8 1.78 2.18 2.18 94 1016.9
20260502224551 24 178 4.8 11.3 1.75 2.16 2.16 93 1016.8
20260502223054 24 272 11.3 17.7 1.65 2.06 2.06 93 1016.7
20260502221556 25 251 3.2 9.7 0.51 0.91 0.91 90 1016.9
20260502214555 26 219 1.6 3.2 0.00 0.41 0.41 90 1016.3
20260502213055 26 21 4.8 8.0 0.00 0.41 0.41 89 1016.1
20260502211553 26 236 1.6 12.9 0.41 0.41 0.41 91 1016.0
20260502210105 26 304 6.4 22.5 0.38 0.38 0.38 89 1016.0
20260502204552 28 11 12.9 22.5 0.00 0.00 0.00 80 1015.9
20260502203056 28 29 9.7 27.4 0.00 0.00 0.00 79 1015.9
20260502201603 28 360 9.7 22.5 0.00 0.00 0.00 78 1015.9
20260502194559 29 348 11.3 20.9 0.00 0.00 0.00 75 1016.0
20260502193100 30 9 12.9 20.9 0.00 0.00 0.00 72 1016.2
20260502191558 30 19 12.9 17.7 0.00 0.00 0.00 68 1016.2
20260502184559 30 323 14.5 20.9 0.00 0.00 0.00 68 1016.3
20260502183051 30 261 12.9 20.9 0.00 0.00 0.00 66 1016.3
20260502181552 30 292 9.7 17.7 0.00 0.00 0.00 66 1016.4
20260502180120 30 286 11.3 19.3 0.00 0.00 0.00 67 1016.6
20260502163048 31 305 12.9 20.9 0.00 0.00 0.00 58 1017.4
20260502161601 32 242 1.6 11.3 0.00 0.00 0.00 55 1017.6
20260502151606 31 174 3.2 16.1 0.00 0.00 0.00 61 1018.3
20260502130104 27 0 1.6 6.4 0.00 0.00 0.00 70 1018.5
20260502123055 26 98 1.6 6.4 0.00 0.00 0.00 78 1018.2
20260502121602 26 37 1.6 4.8 0.00 0.00 0.00 82 1017.9
20260502114549 24 119 1.6 4.8 0.00 0.00 0.00 85 1017.8
20260502113049 23 144 3.2 6.4 0.00 0.00 0.00 87 1017.6
20260502111557 23 103 1.6 4.8 0.00 0.00 0.00 89 1017.5
20260502110053 22 55 3.2 4.8 0.00 0.00 0.00 91 1017.3
20260502104554 22 134 1.6 4.8 0.00 0.00 0.00 93 1017.1
20260502103100 22 103 3.2 4.8 0.00 0.00 0.00 94 1017.0
20260502101609 22 111 3.2 6.4 0.00 0.00 0.00 93 1016.8
20260502100108 22 132 1.6 3.2 0.00 0.00 0.00 93 1016.8
20260502080105 22 80 1.6 4.8 0.00 0.00 0.00 93 1016.1